When you browse on this site, cookies collect data to enhance your experience and personalize the content and advertising you see.
Visit our Privacy Policy to learn more. By continuing to use the site, you agree to this use of cookies and data.
  • In Latvia
  • List of Countries
  • For 7 days
  • Water Temperature
  • Weather Map
  • Weather Widgets
  • user-avatar
    Login

    Hourly Weather Safaga

    Today, 30 May, Saturday

    Time Temperature Precipitation Wind Pressure Humidity
    00:00 +19°C° 0 mm 2 mps 703 mmHg 19%
    01:00 +20°C° 0 mm 1 mps 703 mmHg 21%
    02:00 +19°C° 0 mm 1 mps 703 mmHg 24%
    03:00 +17°C° 0 mm 2 mps 703 mmHg 27%
    04:00 +17°C° 0 mm 2 mps 703 mmHg 30%
    05:00 +16°C° 0 mm 2 mps 703 mmHg 33%
    06:00 +19°C° 0 mm 2 mps 703 mmHg 27%
    07:00 +21°C° 0 mm 2 mps 704 mmHg 21%
    08:00 +25°C° 0 mm 2 mps 705 mmHg 15%
    09:00 +27°C° 0 mm 2 mps 705 mmHg 12%
    10:00 +29°C° 0 mm 2 mps 705 mmHg 9%
    11:00 +31°C° 0 mm 2 mps 705 mmHg 6%
    12:00 +33°C° 0 mm 3 mps 705 mmHg 5%
    13:00 +35°C° 0 mm 4 mps 705 mmHg 5%
    14:00 +36°C° 0 mm 5 mps 704 mmHg 4%
    15:00 +35°C° 0 mm 5 mps 704 mmHg 5%
    16:00 +35°C° 0 mm 6 mps 704 mmHg 6%
    17:00 +34°C° 0 mm 7 mps 704 mmHg 7%
    18:00 +30°C° 0 mm 5 mps 703 mmHg 10%
    19:00 +27°C° 0 mm 3 mps 703 mmHg 13%
    20:00 +24°C° 0 mm 2 mps 703 mmHg 16%
    21:00 +23°C° 0 mm 2 mps 703 mmHg 16%
    22:00 +22°C° 0 mm 1 mps 703 mmHg 17%
    23:00 +21°C° 0 mm 1 mps 703 mmHg 17%

    Tomorrow, 31 May, Sunday

    Time Temperature Precipitation Wind Pressure Humidity
    00:00 +21°C° 0 mm 1 mps 702 mmHg 18%
    01:00 +20°C° 0 mm 1 mps 702 mmHg 19%
    02:00 +19°C° 0 mm 1 mps 702 mmHg 19%
    03:00 +19°C° 0 mm 1 mps 702 mmHg 20%
    04:00 +18°C° 0 mm 1 mps 702 mmHg 21%
    05:00 +16°C° 0 mm 1 mps 702 mmHg 22%
    06:00 +21°C° 0 mm 1 mps 703 mmHg 18%
    07:00 +24°C° 0 mm 1 mps 703 mmHg 14%
    08:00 +27°C° 0 mm 1 mps 704 mmHg 10%
    09:00 +29°C° 0 mm 1 mps 704 mmHg 8%
    10:00 +31°C° 0 mm 1 mps 704 mmHg 6%
    11:00 +35°C° 0 mm 2 mps 705 mmHg 4%
    12:00 +36°C° 0 mm 3 mps 704 mmHg 4%
    13:00 +37°C° 0 mm 4 mps 704 mmHg 4%
    14:00 +38°C° 0 mm 4 mps 704 mmHg 4%
    15:00 +39°C° 0 mm 5 mps 703 mmHg 5%
    16:00 +37°C° 0 mm 5 mps 703 mmHg 5%
    17:00 +36°C° 0 mm 5 mps 702 mmHg 6%
    18:00 +33°C° 0 mm 4 mps 702 mmHg 10%
    19:00 +29°C° 0 mm 3 mps 702 mmHg 14%
    20:00 +26°C° 0 mm 1 mps 702 mmHg 17%
    21:00 +25°C° 0 mm 1 mps 702 mmHg 18%
    22:00 +24°C° 0 mm 1 mps 702 mmHg 18%
    23:00 +23°C° 0 mm 1 mps 702 mmHg 18%

    Day after tomorrow, 1 June, Monday

    Time Temperature Precipitation Wind Pressure Humidity
    00:00 +23°C° 0 mm 1 mps 702 mmHg 19%
    01:00 +22°C° 0 mm 1 mps 701 mmHg 19%
    02:00 +19°C° 0 mm 0 mps 701 mmHg 20%
    03:00 +19°C° 0 mm 0 mps 701 mmHg 20%
    04:00 +18°C° 0 mm 0 mps 701 mmHg 21%
    05:00 +20°C° 0 mm 1 mps 701 mmHg 21%
    06:00 +23°C° 0 mm 1 mps 702 mmHg 18%
    07:00 +27°C° 0 mm 1 mps 703 mmHg 14%
    08:00 +30°C° 0 mm 1 mps 703 mmHg 10%
    09:00 +32°C° 0 mm 1 mps 703 mmHg 10%
    10:00 +34°C° 0 mm 1 mps 704 mmHg 9%
    11:00 +36°C° 0 mm 1 mps 704 mmHg 9%
    12:00 +38°C° 0 mm 3 mps 703 mmHg 9%
    13:00 +40°C° 0 mm 5 mps 703 mmHg 9%
    14:00 +41°C° 0 mm 7 mps 703 mmHg 9%
    15:00 +40°C° 0 mm 7 mps 702 mmHg 9%
    16:00 +40°C° 0 mm 8 mps 702 mmHg 9%
    17:00 +39°C° 0 mm 8 mps 702 mmHg 9%
    18:00 +36°C° 0 mm 7 mps 702 mmHg 11%
    19:00 +33°C° 0 mm 5 mps 702 mmHg 13%
    20:00 +30°C° 0 mm 3 mps 701 mmHg 15%
    21:00 +29°C° 0 mm 3 mps 701 mmHg 16%
    22:00 +28°C° 0 mm 2 mps 701 mmHg 17%
    23:00 +28°C° 0 mm 2 mps 701 mmHg 18%

    2 June, Tuesday

    Time Temperature Precipitation Wind Pressure Humidity
    00:00 +27°C° 0 mm 2 mps 701 mmHg 18%
    01:00 +27°C° 0 mm 2 mps 700 mmHg 19%
    02:00 +27°C° 0 mm 2 mps 700 mmHg 19%
    03:00 +26°C° 0 mm 1 mps 700 mmHg 20%
    04:00 +25°C° 0 mm 1 mps 700 mmHg 21%
    05:00 +25°C° 0 mm 1 mps 700 mmHg 22%
    06:00 +28°C° 0 mm 1 mps 700 mmHg 19%
    07:00 +31°C° 0 mm 1 mps 701 mmHg 16%
    08:00 +33°C° 0 mm 1 mps 702 mmHg 13%
    09:00 +36°C° 0 mm 2 mps 702 mmHg 12%
    10:00 +38°C° 0 mm 3 mps 702 mmHg 11%
    11:00 +41°C° 0 mm 5 mps 703 mmHg 10%
    12:00 +42°C° 0 mm 6 mps 702 mmHg 10%
    13:00 +43°C° 0 mm 7 mps 702 mmHg 9%
    14:00 +44°C° 0 mm 8 mps 701 mmHg 9%
    15:00 +44°C° 0 mm 9 mps 701 mmHg 9%
    16:00 +43°C° 0 mm 9 mps 701 mmHg 9%
    17:00 +43°C° 0 mm 10 mps 700 mmHg 10%
    18:00 +39°C° 0 mm 9 mps 700 mmHg 11%
    19:00 +37°C° 0 mm 8 mps 700 mmHg 12%
    20:00 +34°C° 0 mm 7 mps 700 mmHg 14%
    21:00 +33°C° 0 mm 6 mps 701 mmHg 16%
    22:00 +30°C° 0 mm 5 mps 701 mmHg 18%
    23:00 +29°C° 0 mm 5 mps 701 mmHg 20%

    3 June, Wednesday

    Time Temperature Precipitation Wind Pressure Humidity
    00:00 +28°C° 0 mm 4 mps 700 mmHg 21%
    01:00 +27°C° 0 mm 4 mps 700 mmHg 22%
    02:00 +26°C° 0 mm 3 mps 700 mmHg 23%
    03:00 +26°C° 0 mm 3 mps 700 mmHg 23%
    04:00 +25°C° 0 mm 3 mps 700 mmHg 24%
    05:00 +24°C° 0 mm 3 mps 700 mmHg 25%
    06:00 +27°C° 0 mm 4 mps 701 mmHg 22%
    07:00 +29°C° 0 mm 5 mps 702 mmHg 19%
    08:00 +33°C° 0 mm 6 mps 703 mmHg 16%
    09:00 +34°C° 0 mm 6 mps 703 mmHg 14%
    10:00 +35°C° 0 mm 6 mps 703 mmHg 13%
    11:00 +37°C° 0 mm 5 mps 703 mmHg 11%
    12:00 +38°C° 0 mm 6 mps 703 mmHg 10%
    13:00 +39°C° 0 mm 6 mps 703 mmHg 9%
    14:00 +40°C° 0 mm 6 mps 702 mmHg 8%
    15:00 +39°C° 0 mm 6 mps 702 mmHg 8%
    16:00 +39°C° 0 mm 7 mps 702 mmHg 9%
    17:00 +38°C° 0 mm 7 mps 702 mmHg 9%
    18:00 +34°C° 0 mm 6 mps 702 mmHg 12%
    19:00 +32°C° 0 mm 5 mps 702 mmHg 14%
    20:00 +29°C° 0 mm 3 mps 702 mmHg 17%
    21:00 +28°C° 0 mm 3 mps 702 mmHg 18%
    22:00 +27°C° 0 mm 3 mps 702 mmHg 19%
    23:00 +26°C° 0 mm 2 mps 702 mmHg 20%

    4 June, Thursday

    Time Temperature Precipitation Wind Pressure Humidity
    00:00 +26°C° 0 mm 2 mps 702 mmHg 20%
    01:00 +26°C° 0 mm 2 mps 701 mmHg 20%
    02:00 +26°C° 0 mm 2 mps 701 mmHg 20%
    03:00 +25°C° 0 mm 2 mps 701 mmHg 21%
    04:00 +24°C° 0 mm 2 mps 701 mmHg 23%
    05:00 +24°C° 0 mm 2 mps 701 mmHg 24%
    06:00 +26°C° 0 mm 2 mps 702 mmHg 21%
    07:00 +29°C° 0 mm 3 mps 702 mmHg 18%
    08:00 +33°C° 0 mm 3 mps 703 mmHg 15%
    09:00 +35°C° 0 mm 3 mps 703 mmHg 14%
    10:00 +36°C° 0 mm 3 mps 704 mmHg 13%
    11:00 +38°C° 0 mm 4 mps 704 mmHg 11%
    12:00 +40°C° 0 mm 4 mps 704 mmHg 11%
    13:00 +40°C° 0 mm 5 mps 703 mmHg 10%
    14:00 +41°C° 0 mm 6 mps 703 mmHg 10%
    15:00 +40°C° 0 mm 5 mps 703 mmHg 10%
    16:00 +40°C° 0 mm 5 mps 703 mmHg 10%
    17:00 +38°C° 0 mm 4 mps 702 mmHg 11%
    18:00 +35°C° 0 mm 3 mps 702 mmHg 13%
    19:00 +31°C° 0 mm 3 mps 702 mmHg 16%
    20:00 +29°C° 0 mm 2 mps 702 mmHg 19%
    21:00 +28°C° 0 mm 2 mps 702 mmHg 19%
    22:00 +28°C° 0 mm 2 mps 702 mmHg 20%
    23:00 +28°C° 0 mm 2 mps 702 mmHg 20%
    Show more